Location: Bern�tre
(50.1974°N, 2.0915°E)
Time: 03:12:23
(UTC+00:00)

Cosmos 2034 Rocket - Pass Details

Date: 18 September 2020
Orbit: 957 x 1002 km, 82.9° (Epoch: 23 October)

Event Time Altitude Azimuth Distance (km) Brightness Sun altitude
Rises 18:54:51 0° 161° (SSE) 3,714 6.7 -9.9°
Reaches altitude 10° 18:57:32 10° 153° (SSE) 2,768 6.0 -10.3°
Maximum altitude 19:03:20 39° 88° (E) 1,468 4.5 -11.2°
Drops below altitude 10° 19:09:08 10° 22° (NNE) 2,770 6.3 -12.1°
Sets 19:11:48 0° 15° (NNE) 3,718 7.1 -12.5°
